Wind_Speed
68 70 71 72 74 74 75 76 76 77 77 77 76 76 75 74 73 73 72 72 72 72 72 72 72 72 73 73 74 74 75 76 77 78 79 80 81 81 81 82 82 82 82 83 83 83 83 84 84 85 85 86 86 87 88 88 89 89 90 91 91 92 94 95 96 94 91 90 93 96 99 99 97 94 92 91 90 89 88 88 89 89 90 91 91
71 72 74 75 75 76 76 76 76 76 76 76 75 74 74 73 73 72 72 72 72 72 72 72 73 73 74 74 75 76 77 77 78 79 80 80 81 81 81 82 82 83 83 84 85 85 85 86 86 86 87 87 88 88 89 89 90 90 91 92 92 93 94 95 96 95 92 89 89 90 93 96 96 95 94 92 91 91 91 90 90 90 90 91 91
73 74 75 76 76 77 76 76 75 75 75 75 74 73 73 72 72 72 72 72 73 73 73 74 74 75 76 76 77 78 78 79 80 80 81 81 82 82 83 83 84 85 86 87 87 87 88 88 88 89 89 89 89 90 90 91 91 92 92 93 94 94 96 97 97 97 96 92 91 91 92 94 94 94 94 93 92 92 92 91 92 92 92 92 92
75 75 76 76 77 76 75 74 74 74 74 74 73 72 72 72 72 72 72 73 73 74 75 75 76 77 77 78 79 79 80 80 81 81 82 83 83 84 85 86 87 87 88 89 89 89 89 89 89 89 89 89 89 90 90 90 91 91 92 93 93 94 95 96 97 97 97 95 93 93 94 96 97 95 96 96 94 92 93 92 92 93 93 93 93
75 76 77 77 76 75 74 73 73 73 72 72 71 71 71 71 72 72 72 73 74 75 76 77 77 78 79 79 80 81 81 81 82 83 84 85 86 86 87 88 88 89 89 89 89 88 88 87 87 87 87 86 87 87 87 87 87 87 88 88 89 89 90 91 92 93 94 94 93 92 93 96 98 98 98 99 98 96 95 94 93 93 93 94 95
76 76 75 75 73 73 72 71 71 70 70 70 70 70 70 71 71 72 73 74 75 76 77 78 79 79 80 81 81 82 83 83 84 85 86 86 87 88 88 88 88 87 87 86 85 85 84 83 82 82 82 82 82 82 81 81 81 81 81 81 81 82 82 83 84 85 86 87 87 87 88 90 94 96 97 99 100 99 99 98 96 95 94 94 94
74 73 72 72 71 71 70 69 69 69 69 69 70 70 71 71 72 73 75 76 77 78 78 79 80 81 82 82 83 84 85 85 86 86 87 87 87 87 86 85 84 83 81 80 80 79 78 77 77 76 76 76 76 75 75 74 74 74 74 75 75 76 76 76 77 77 77 78 79 79 80 81 85 87 89 92 96 99 101 101 99 97 96 96 95
71 71 71 71 70 69 68 68 68 69 69 70 70 71 72 73 74 75 76 77 78 79 80 81 82 82 83 84 85 85 85 86 86 85 85 85 84 82 81 79 77 76 75 74 73 73 72 72 71 71 71 71 71 71 71 71 70 70 71 71 71 72 72 72 72 72 72 72 72 73 73 74 75 77 79 82 86 90 95 99 100 99 98 97 96
71 71 70 70 69 68 68 69 69 70 71 71 72 72 73 74 76 77 78 79 80 81 81 82 83 83 84 84 85 85 84 84 83 82 81 79 77 75 73 72 71 70 69 69 69 68 68 68 68 69 69 70 70 70 71 71 70 70 70 70 70 70 70 70 70 70 69 69 69 68 68 68 69 70 72 73 76 79 84 89 92 95 97 97 95
70 69 69 69 69 69 69 70 71 71 72 72 73 74 75 76 78 79 79 80 81 82 82 83 83 83 83 83 82 82 81 79 77 76 74 72 70 68 67 66 65 65 65 65 66 66 66 67 68 69 69 70 71 72 72 72 72 72 72 71 71 71 70 70 69 68 68 67 66 66 66 65 66 67 67 68 69 71 74 77 80 85 90 92 92
68 68 68 68 69 69 70 71 71 72 73 74 75 76 77 78 79 80 81 81 82 82 82 82 82 81 80 79 77 76 74 72 70 68 67 66 64 63 62 62 63 63 64 65 65 66 67 68 69 70 71 72 73 73 73 72 72 72 71 71 70 70 70 69 68 67 67 66 65 65 64 64 64 65 65 65 66 67 68 70 72 75 80 83 85
67 67 68 68 69 70 70 71 72 73 75 76 77 78 79 79 80 81 81 82 82 81 81 79 78 76 74 72 71 69 67 65 64 63 62 62 61 61 61 62 63 64 65 66 67 68 69 70 71 72 72 72 72 72 70 69 68 67 66 66 66 66 66 66 66 65 64 64 63 63 63 62 62 62 62 61 62 63 65 65 66 68 71 73 76
67 67 68 68 69 70 71 73 74 76 77 78 78 79 80 80 80 81 81 80 79 78 76 74 72 70 67 65 64 63 62 61 60 60 60 60 61 61 62 63 64 66 67 68 69 70 70 71 71 71 70 70 69 68 66 64 63 62 61 60 60 61 61 62 62 62 62 61 60 59 59 60 59 58 58 57 56 58 60 61 62 64 65 67 68
66 67 67 68 70 71 73 75 76 77 78 79 79 80 80 80 80 79 78 76 75 72 70 67 65 63 61 60 59 59 58 58 58 59 60 61 62 63 64 65 66 67 68 68 69 68 69 69 68 67 67 66 66 65 63 61 59 57 57 56 56 57 57 57 58 58 59 58 57 55 55 55 55 53 52 52 52 53 55 56 57 58 60 62 63
66 67 68 70 72 73 75 76 77 78 78 79 79 79 78 78 77 75 73 71 68 66 63 61 60 59 57 56 56 57 58 58 59 60 62 63 64 64 65 66 66 67 67 67 67 66 66 66 66 65 64 63 63 62 61 59 57 55 54 53 52 52 52 52 53 54 55 55 54 52 52 52 51 50 49 49 50 51 51 51 52 53 54 55 57
66 68 70 72 73 74 76 77 78 78 78 78 77 76 75 74 72 70 67 65 62 60 58 57 56 55 55 55 55 57 58 59 60 61 63 63 64 64 65 65 65 66 66 65 65 64 64 64 64 63 62 62 61 60 60 58 56 54 53 51 50 49 47 48 50 51 51 52 52 52 51 52 51 50 48 48 48 49 49 49 49 50 50 51 52
68 69 71 73 74 76 77 77 77 76 76 75 74 72 71 69 67 65 62 59 57 56 55 54 54 54 55 55 56 57 59 60 61 61 62 63 63 64 64 64 64 64 64 64 63 63 63 63 63 62 61 60 59 59 58 57 56 54 53 51 49 47 46 46 47 47 48 49 50 51 52 53 52 51 49 47 47 48 48 47 48 50 50 49 49
69 71 72 74 75 76 76 75 74 73 72 70 69 68 67 65 62 59 57 55 54 53 53 53 53 54 55 56 57 57 59 60 60 61 62 62 63 63 63 63 63 63 63 62 62 62 61 61 61 61 60 59 58 58 57 57 56 55 53 51 49 46 45 45 46 45 46 48 49 51 52 52 52 51 50 48 46 45 46 45 47 49 49 49 49
70 72 73 75 75 73 71 70 69 68 68 67 66 65 63 60 58 55 54 53 52 52 52 53 54 55 56 56 57 57 58 59 60 60 61 62 62 62 62 62 62 62 61 61 60 60 60 59 58 58 59 59 58 57 56 56 56 55 53 51 49 46 44 44 44 45 46 47 47 48 49 50 50 50 49 48 46 44 43 42 44 46 47 47 48
71 73 73 72 70 67 66 66 66 65 65 64 63 62 59 56 54 53 52 51 51 51 52 53 54 55 56 57 57 57 58 59 59 60 61 61 62 61 61 61 60 60 60 59 59 58 58 58 57 57 57 57 57 56 55 55 55 54 53 51 49 46 44 43 43 43 44 45 45 45 45 46 48 48 47 47 47 45 43 41 41 42 43 44 45
71 70 69 66 64 63 63 63 64 63 63 62 61 59 55 53 52 52 51 50 51 51 52 53 54 55 57 57 57 58 58 58 59 59 59 59 60 60 60 59 59 59 58 58 58 57 57 57 57 57 57 56 56 55 54 54 54 53 52 51 49 46 44 43 43 43 42 42 42 43 43 44 45 46 46 45 46 46 46 45 44 44 43 42 43
67 65 62 61 61 61 61 61 61 60 60 59 58 56 53 52 52 51 50 50 50 51 52 54 55 56 57 57 58 58 58 57 57 57 57 57 58 58 58 58 58 58 57 57 57 57 57 57 56 56 56 55 55 54 53 53 52 51 51 50 48 46 44 43 43 42 41 41 41 41 42 43 44 45 46 46 46 47 48 49 49 49 48 47 47
61 60 59 58 58 58 58 58 58 58 57 57 56 54 52 52 51 49 49 49 50 51 53 54 55 56 56 57 58 57 56 55 55 55 55 55 56 56 57 57 57 57 57 57 57 57 57 57 57 56 56 55 54 54 53 52 51 49 48 48 47 46 44 43 42 42 41 41 41 41 42 43 44 45 46 47 48 50 51 51 52 52 52 52 52
58 57 57 56 55 55 55 55 55 55 56 55 54 52 51 50 49 48 48 49 50 52 53 55 56 56 56 57 57 56 55 54 55 55 54 55 56 56 56 56 57 57 58 57 57 57 57 57 57 57 56 56 55 54 53 51 49 47 46 45 45 44 44 43 43 43 43 44 44 44 45 46 47 48 49 50 51 52 53 54 54 55 55 55 55
56 56 55 54 53 53 53 52 53 53 54 54 53 52 51 49 48 48 49 50 52 53 54 55 56 56 57 57 57 56 55 54 55 55 55 56 56 56 57 56 57 58 58 58 58 58 58 58 58 58 57 56 55 53 51 49 47 45 45 45 45 45 45 45 45 46 47 47 47 47 48 49 50 51 52 53 54 55 55 56 56 57 58 58 57
55 55 54 52 52 51 50 50 50 52 53 53 52 51 50 48 48 49 50 52 53 54 54 55 56 57 57 57 57 57 56 55 55 56 56 57 57 57 57 57 58 58 58 58 58 58 59 58 58 57 56 55 53 50 46 44 44 44 45 46 46 46 47 47 47 47 48 48 48 48 49 50 51 53 54 54 55 57 57 58 58 59 60 60 59
55 54 53 52 51 50 49 49 50 51 52 52 52 51 50 49 49 51 52 54 54 54 55 56 57 57 58 58 59 58 58 57 57 58 58 58 58 58 58 58 58 58 57 57 57 57 58 57 56 55 53 51 48 45 42 41 42 43 44 45 46 46 47 46 47 47 47 47 48 48 50 51 52 53 54 55 56 57 58 58 58 59 59 59 58
55 54 53 52 51 49 48 47 49 50 51 50 51 51 50 50 51 52 54 55 55 56 57 57 58 58 59 59 60 60 60 59 59 59 59 59 59 59 59 58 58 57 57 56 56 56 55 54 53 52 49 45 42 40 39 40 41 42 42 43 44 45 46 46 47 47 47 48 48 49 50 51 51 52 53 54 55 55 55 55 55 54 54 53 53
55 54 53 52 51 50 48 47 48 50 50 50 50 51 52 52 53 54 55 56 57 58 59 59 59 59 59 60 61 61 61 61 61 61 61 61 61 61 59 59 58 57 56 55 54 54 53 52 50 47 43 39 37 37 38 39 40 41 41 41 42 44 45 46 46 47 47 47 48 48 49 49 50 50 50 50 49 49 48 48 47 46 45 45 45
55 54 53 53 52 51 50 50 50 50 51 50 51 52 53 54 54 56 57 58 59 60 60 60 60 60 60 61 62 62 63 63 63 63 63 63 63 62 60 59 58 56 55 54 53 52 50 49 46 42 37 35 35 36 37 38 39 40 40 41 41 42 43 44 45 45 46 46 46 46 46 46 46 46 45 43 42 41 41 41 40 40 40 41 41
55 54 53 53 53 53 53 53 52 52 52 53 53 53 54 55 56 57 58 59 60 61 61 61 61 61 61 61 62 62 63 63 64 64 64 64 65 63 60 57 55 54 53 52 51 50 49 46 41 37 34 34 35 35 36 37 38 38 39 40 40 41 41 42 43 44 45 45 45 44 44 43 42 41 39 38 37 36 37 38 38 39 40 41 42
55 54 54 55 55 55 55 55 55 55 55 55 55 55 56 56 57 58 59 60 61 62 62 62 62 62 62 62 62 63 63 63 64 65 65 65 66 64 60 55 52 51 51 51 50 49 46 41 36 34 34 34 35 35 35 36 37 37 38 39 39 39 39 40 40 41 42 43 43 42 41 40 39 37 35 35 35 35 35 35 36 38 39 41 43
56 55 55 56 57 57 57 57 57 57 57 57 57 58 57 57 58 59 60 61 61 62 63 63 63 63 63 63 63 64 64 64 64 65 65 66 66 64 59 53 50 50 50 49 49 48 43 37 33 33 34 34 35 35 35 35 36 37 37 38 38 38 38 38 38 39 40 41 41 40 39 37 36 35 34 34 33 33 33 34 35 37 39 41 43
57 56 56 57 58 59 59 59 59 59 59 59 59 59 58 58 59 60 61 62 62 63 63 64 64 64 63 64 64 64 64 64 64 65 65 65 66 64 58 51 48 49 49 49 49 46 39 34 33 34 34 34 34 35 35 35 36 36 36 37 37 37 37 37 37 37 38 39 39 39 38 37 35 33 33 33 32 32 33 34 36 38 39 41 43
58 57 57 58 59 60 60 60 60 60 60 61 60 60 59 59 59 60 62 62 63 63 64 64 64 64 63 64 64 64 64 64 64 64 65 65 66 64 56 49 47 48 48 49 48 43 35 32 33 34 34 34 34 35 35 35 35 35 35 36 36 36 36 36 36 36 36 36 36 37 37 37 35 33 32 32 32 33 33 35 36 38 40 42 43
59 59 59 59 60 60 60 60 60 60 61 61 61 60 59 60 61 62 62 62 63 63 64 64 65 64 64 64 64 63 64 63 63 65 65 65 66 64 54 47 46 48 48 48 46 39 33 31 32 33 33 34 34 35 35 35 35 35 35 35 35 35 35 34 34 34 35 34 34 34 35 35 34 33 32 32 32 33 33 34 35 37 39 42 43
61 61 60 59 59 59 59 58 58 59 60 61 61 60 61 61 62 63 63 63 63 63 63 64 64 64 65 65 64 63 63 63 64 65 65 65 67 63 53 46 46 47 48 47 43 35 32 32 32 33 33 34 34 34 34 34 34 34 34 35 34 34 34 33 33 33 33 33 33 32 33 33 33 32 31 31 31 32 32 33 34 36 39 41 42
62 61 60 59 59 58 57 57 57 59 60 60 60 61 62 62 63 63 63 63 63 63 63 63 64 64 65 65 63 63 63 63 63 65 65 66 67 62 52 45 45 46 47 45 39 33 32 32 32 32 33 33 33 34 34 34 34 34 34 34 34 34 33 32 32 32 32 32 32 32 32 32 31 31 30 30 30 30 31 32 33 34 36 38 38
61 60 59 58 57 56 56 56 57 58 59 60 60 61 62 63 63 63 63 63 63 63 63 63 63 64 64 64 63 62 63 63 64 65 65 66 67 60 50 44 43 45 45 41 35 32 32 33 32 32 32 32 33 33 33 34 34 34 34 34 34 34 33 32 31 31 31 31 31 31 31 31 31 30 30 30 30 30 30 30 31 32 33 34 34
57 56 56 56 56 55 56 57 58 59 60 61 62 62 63 62 62 63 63 63 63 63 63 63 63 63 63 62 62 63 62 62 64 65 65 66 66 58 48 42 43 44 42 37 32 31 32 32 32 32 31 31 32 33 33 33 34 34 34 34 34 33 33 32 31 30 30 29 29 29 29 29 30 30 30 30 29 29 29 28 29 30 31 31 31
55 54 55 55 56 56 57 58 60 61 62 63 63 63 63 63 62 62 63 63 63 63 63 63 63 63 62 62 62 62 62 62 63 65 65 66 64 55 46 42 43 43 39 33 30 31 32 32 31 31 31 31 32 32 33 33 33 33 33 33 33 33 33 32 31 31 30 30 29 28 28 28 28 28 29 29 28 28 27 27 28 28 29 30 30
55 56 57 57 58 59 60 61 61 62 63 63 63 63 63 63 62 62 62 62 63 63 63 63 63 62 62 62 62 62 61 62 63 64 65 65 60 50 43 41 43 42 36 31 30 31 32 31 31 31 31 32 32 32 32 33 33 32 32 32 32 32 32 32 32 31 30 30 30 29 28 27 27 27 27 27 27 27 26 26 27 27 28 29 30
56 57 58 59 60 60 60 60 61 61 62 63 64 64 63 63 62 62 62 63 63 63 63 63 62 62 63 63 63 62 62 63 64 64 65 63 55 46 41 42 43 40 34 31 30 31 30 30 30 31 31 32 32 32 32 32 32 32 31 31 31 31 31 31 31 31 30 30 30 29 28 27 26 26 26 25 25 25 26 26 27 27 27 27 28
57 58 58 59 59 59 59 59 60 62 63 64 65 64 64 63 63 63 64 64 64 64 64 63 63 63 63 64 64 64 64 64 65 65 64 59 51 43 40 41 41 38 33 31 31 30 29 29 29 30 31 32 32 32 32 32 31 31 30 29 30 30 31 31 31 31 30 30 29 29 29 28 27 26 25 25 24 24 25 25 26 26 26 26 27
58 58 59 59 59 59 60 61 62 64 65 65 65 65 65 65 65 65 65 65 65 64 64 63 63 64 65 67 67 67 67 67 67 66 62 55 46 41 40 41 39 36 33 31 31 30 28 28 29 30 31 31 31 31 31 31 31 30 29 28 28 29 30 30 30 30 30 29 29 29 28 28 27 26 25 25 24 23 23 24 24 25 25 25 25
59 59 60 60 60 61 63 64 65 66 66 67 67 67 66 66 66 66 66 66 66 65 65 65 66 67 69 69 70 71 71 70 67 63 57 49 44 41 40 40 38 34 32 31 30 29 28 28 28 29 30 31 31 31 31 31 30 30 29 28 28 28 29 29 29 29 29 29 29 28 28 27 27 27 26 25 24 23 23 23 23 23 23 23 24
60 60 61 62 63 64 66 67 68 68 68 68 68 67 67 67 67 67 67 67 67 67 68 69 70 71 72 73 74 75 73 68 63 56 50 45 42 40 39 38 36 33 31 31 30 29 28 28 28 29 29 30 30 30 30 30 30 30 29 28 27 28 28 29 29 29 29 29 28 28 27 27 27 26 26 26 25 24 24 23 23 23 23 23 23
61 62 63 64 66 67 68 69 69 69 68 68 68 68 68 68 69 69 69 69 70 70 72 73 74 76 77 77 77 74 69 63 56 50 46 43 42 40 38 37 35 32 31 30 30 28 28 28 28 28 29 29 29 29 30 30 30 30 29 28 27 28 28 28 29 29 29 29 28 28 27 27 26 26 25 25 25 25 24 24 24 23 22 22 22
63 64 65 67 68 69 69 69 69 68 68 68 68 69 70 70 70 71 71 72 73 75 77 78 79 80 79 77 74 69 63 57 52 47 43 42 41 39 37 36 33 31 30 30 29 28 28 28 28 28 28 28 28 29 29 29 29 29 29 28 28 28 28 29 29 29 29 29 28 28 27 27 26 26 25 25 25 24 24 24 24 23 23 22 21
65 66 67 68 69 69 68 68 68 68 68 69 70 70 71 72 72 73 75 77 79 80 80 80 78 76 74 71 67 63 59 54 49 45 42 41 40 38 36 34 32 31 30 30 29 28 28 27 27 27 27 27 28 28 28 28 28 28 28 28 28 28 29 29 29 29 29 29 28 28 28 27 27 26 25 25 24 24 24 24 24 23 23 22 22
67 67 67 67 67 67 67 67 68 69 69 70 71 72 73 74 76 78 79 80 79 78 76 74 72 70 68 65 63 60 56 51 46 43 41 40 38 36 34 32 31 30 29 29 28 27 27 27 27 27 27 27 27 28 27 27 27 27 27 28 28 28 29 29 29 29 29 29 28 28 28 27 27 26 26 25 24 24 23 23 23 23 22 22 22
Wind_Direction
295 295 295 294 294 293 292 292 292 292 292 291 291 291 290 290 290 290 290 290 290 290 290 290 290 290 290 290 290 290 290 290 290 289 289 289 289 288 288 288 288 288 287 287 287 286 285 285 284 284 283 283 282 281 281 280 279 279 278 278 277 277 276 276 276 274 271 270 269 268 267 266 266 265 264 262 261 259 258 258 259 259 260 261 261
294 294 294 293 292 292 292 292 292 292 291 291 290 290 290 290 291 291 291 291 291 291 291 291 291 291 291 291 291 291 291 291 290 290 290 289 289 289 289 289 289 289 289 289 289 288 288 287 287 286 285 284 284 283 282 282 281 280 280 279 278 277 277 276 275 274 273 271 270 269 268 267 265 264 264 262 261 259 258 256 256 256 257 258 258
293 293 293 292 292 292 293 293 292 291 291 291 291 291 291 291 291 291 291 291 291 291 291 291 292 292 292 292 292 292 291 291 291 291 290 290 290 291 291 291 291 291 291 291 290 290 290 289 288 287 287 286 285 284 284 283 282 282 281 280 279 278 278 277 276 275 274 272 270 269 268 267 266 265 264 263 261 260 259 257 255 254 253 254 255
292 292 292 292 292 292 292 292 291 291 291 291 291 291 291 291 291 291 291 291 291 291 292 292 292 292 292 292 292 292 291 291 291 291 292 292 292 292 292 292 292 292 292 292 291 291 290 289 289 288 287 286 286 285 284 283 283 282 281 281 280 279 279 278 277 276 275 273 271 270 268 267 266 265 264 264 263 261 260 258 257 255 253 252 252
292 292 292 292 292 292 292 291 291 291 291 291 291 291 291 291 291 291 291 291 292 292 292 292 292 292 292 292 292 292 292 293 293 293 293 293 293 293 293 293 293 293 292 292 291 291 290 289 288 287 287 286 285 284 284 283 283 282 282 281 280 280 280 279 279 278 277 275 273 271 269 268 266 265 263 263 262 262 261 260 258 257 255 253 252
292 292 292 292 292 292 292 292 292 291 291 291 291 291 291 291 291 292 292 292 292 292 293 293 293 293 293 293 294 294 294 294 294 294 294 294 294 294 294 293 293 292 292 291 291 290 289 288 288 287 287 286 285 285 284 284 283 283 282 282 281 281 280 280 279 279 278 278 276 274 271 269 268 266 264 263 262 261 260 260 259 258 256 255 253
293 292 292 292 293 292 292 292 291 291 291 291 291 292 292 292 292 292 293 293 293 293 294 294 294 295 295 295 295 295 295 295 294 294 294 294 294 293 293 293 292 292 291 290 290 289 289 288 288 287 287 287 286 286 285 285 284 284 283 283 282 282 281 281 280 280 279 278 278 276 274 272 270 268 266 264 262 261 259 259 258 258 257 256 254
292 292 292 293 293 292 292 292 291 291 292 292 292 293 293 293 293 293 293 294 294 295 295 295 295 296 295 295 295 295 295 295 294 294 294 293 293 293 292 292 291 291 290 290 289 289 289 289 289 289 288 288 287 287 286 286 285 284 284 284 283 282 282 281 280 280 279 279 278 277 276 274 273 271 269 266 264 262 260 259 257 257 257 256 255
292 292 292 292 292 292 292 292 292 292 293 293 293 293 293 293 293 294 295 295 295 296 296 296 296 296 296 295 295 295 294 294 294 293 293 293 292 292 292 291 291 290 290 290 289 290 290 290 290 289 289 289 289 288 287 287 286 285 284 283 283 282 281 281 280 280 279 279 278 277 276 276 274 273 272 270 267 264 262 260 258 256 256 255 255
292 292 292 291 292 292 292 293 293 293 293 293 293 293 293 294 295 295 296 296 296 296 296 296 296 295 295 294 294 294 294 294 293 293 293 292 292 292 291 291 290 290 290 290 290 290 291 290 290 290 290 290 290 289 289 288 287 286 285 284 283 282 280 280 279 279 278 278 277 277 276 275 274 273 272 271 270 268 266 264 261 258 256 255 254
291 291 291 291 292 293 293 293 293 292 292 292 293 294 294 295 296 296 296 296 296 296 296 295 295 294 294 294 294 294 293 293 293 293 293 293 292 292 292 291 291 291 291 292 292 292 292 292 292 291 291 291 291 290 290 289 289 288 287 285 284 283 281 280 278 278 277 277 277 276 276 275 274 273 273 272 271 270 269 267 265 262 259 256 254
291 291 291 292 292 293 292 292 292 292 293 293 294 295 296 296 296 296 296 296 295 295 295 295 294 294 294 294 294 293 293 293 293 294 293 293 293 293 293 293 293 293 293 293 293 294 294 294 294 293 293 293 292 292 291 291 290 290 289 288 286 285 283 281 280 278 277 276 276 276 275 275 274 274 274 273 272 271 270 269 267 265 263 260 256
291 291 292 292 292 292 292 292 292 293 294 294 295 295 296 296 295 295 295 295 295 295 294 294 294 294 294 294 294 293 294 294 294 294 294 294 295 295 295 295 295 294 294 295 295 295 296 296 296 295 295 295 294 293 293 292 292 291 290 289 288 287 285 284 282 280 279 277 276 275 275 275 275 275 276 276 274 272 270 269 267 266 265 263 261
291 291 292 292 291 291 291 292 293 294 295 295 295 295 295 295 295 295 295 295 294 294 294 294 294 293 293 294 294 294 294 295 295 295 296 296 296 296 296 296 296 296 296 297 297 297 297 297 297 297 296 296 296 295 294 293 292 291 290 289 288 287 286 285 284 283 282 280 278 277 277 277 276 276 277 277 276 273 271 269 268 267 266 265 263
291 291 291 291 291 291 292 293 294 295 295 295 295 295 295 295 295 295 295 295 295 294 294 293 293 293 294 294 295 295 296 296 296 296 296 297 297 297 297 298 298 298 298 299 299 299 299 298 298 297 297 297 296 296 295 294 293 292 290 288 287 285 285 284 284 283 284 284 283 282 281 280 279 277 277 277 276 274 272 270 269 268 267 266 265
290 290 290 291 291 292 293 294 294 295 294 295 295 295 295 295 295 295 295 295 294 294 293 294 294 295 296 296 297 297 297 297 298 298 298 298 298 299 299 299 300 300 300 300 300 300 299 299 298 298 298 297 296 296 295 294 293 292 290 289 287 285 283 281 281 282 283 285 285 285 284 283 282 280 279 277 275 274 272 270 269 268 267 266 266
290 290 291 291 292 293 293 294 294 294 295 295 295 295 295 295 295 295 295 295 294 294 295 296 296 297 298 298 298 299 299 299 299 299 299 300 300 300 301 301 301 300 300 300 300 300 300 299 299 298 298 297 296 296 295 295 294 293 291 290 287 285 282 280 280 281 282 283 283 283 283 283 282 282 281 278 275 274 273 271 269 268 267 267 266
290 291 291 292 293 293 294 294 294 295 295 295 295 295 295 295 295 296 295 294 295 296 297 298 298 299 299 299 299 300 300 300 300 301 301 301 301 301 301 301 301 301 300 300 300 300 299 299 299 298 298 297 297 296 295 294 294 292 291 289 287 284 282 280 280 280 281 281 281 281 282 282 282 282 281 280 277 274 273 272 270 269 268 268 267
291 291 292 293 293 294 294 295 295 296 296 296 296 295 295 296 296 295 295 296 297 298 299 299 299 300 300 300 300 300 300 301 301 301 301 301 302 302 302 302 301 301 301 300 300 300 299 299 299 298 297 297 296 296 295 294 293 292 290 289 286 284 281 279 279 279 278 278 277 278 279 280 281 281 282 282 281 278 275 272 271 270 269 269 268
292 293 293 293 294 295 295 296 296 296 296 296 296 295 296 296 295 295 296 297 298 299 299 299 300 300 301 301 301 302 302 301 301 301 301 302 302 302 302 302 301 301 301 301 300 300 299 299 298 297 296 296 296 296 295 294 293 292 290 288 285 283 281 279 279 278 277 276 275 275 276 277 279 280 280 281 282 282 280 277 274 272 271 270 270
293 293 293 294 295 296 297 297 297 297 297 296 295 296 296 296 295 296 297 298 298 299 299 300 300 301 302 302 303 303 303 303 302 302 302 302 302 302 302 302 302 301 301 301 300 300 299 299 298 297 296 296 296 296 295 294 293 291 289 287 285 283 281 280 280 279 279 278 277 276 276 276 277 278 279 279 281 282 283 282 280 277 276 273 272
294 294 295 296 297 298 297 297 297 297 296 295 295 296 295 295 295 296 297 297 298 299 299 300 301 301 303 304 305 305 305 305 304 304 304 304 303 303 303 303 302 302 302 301 301 301 300 299 298 297 296 296 296 296 295 294 293 290 287 286 285 284 282 281 281 281 281 280 280 278 277 277 277 277 278 278 279 280 281 282 282 281 280 278 276
294 295 296 298 298 298 298 298 297 297 295 295 296 296 295 295 295 295 296 297 298 299 299 300 301 302 304 306 307 307 307 306 306 306 306 306 305 305 304 304 303 303 303 303 302 302 300 299 299 298 298 298 297 297 296 294 293 289 286 285 285 285 285 284 284 284 285 284 284 282 281 280 279 279 279 279 280 280 281 281 281 281 281 280 279
295 296 298 298 299 299 299 298 297 296 295 295 296 295 295 294 294 294 296 297 298 299 299 301 302 304 305 307 308 309 309 308 308 308 308 308 307 306 305 304 304 304 303 303 303 302 302 301 301 301 300 300 299 297 296 294 292 289 286 285 286 287 288 288 288 289 289 289 288 287 286 285 284 283 282 282 282 281 281 281 281 280 280 279 279
295 297 298 299 299 299 298 298 296 295 295 295 295 294 294 293 293 294 296 297 298 299 301 302 304 305 306 307 309 310 310 310 310 310 310 309 308 307 306 305 304 303 303 303 304 304 304 303 303 302 301 300 299 297 295 293 292 290 288 289 290 290 291 291 291 291 291 290 289 288 287 286 285 284 283 283 283 282 282 281 281 280 279 278 278
296 297 298 299 299 299 298 297 295 295 294 294 294 293 293 293 293 294 295 297 298 300 302 303 304 306 307 309 310 311 311 311 311 311 311 311 310 308 306 304 303 302 303 303 303 303 303 303 303 302 301 301 299 296 294 292 291 290 290 290 291 291 291 291 291 290 290 289 289 288 287 286 285 285 284 284 283 283 282 281 281 280 279 278 277
296 297 298 298 298 298 298 296 295 294 294 294 293 293 292 292 293 294 295 297 299 301 302 304 305 306 308 310 311 311 311 311 311 311 311 312 311 309 307 305 303 302 301 301 301 301 302 303 303 302 301 300 297 294 292 290 289 289 289 290 291 291 291 291 291 291 290 290 290 289 289 288 287 287 286 285 284 283 282 281 280 279 278 277 276
296 297 297 298 298 297 297 296 294 294 294 294 293 292 292 292 293 294 295 297 299 301 302 304 305 306 308 309 310 311 311 311 311 311 312 312 313 312 308 305 303 300 299 299 299 300 301 302 302 302 300 297 294 292 292 291 290 290 290 291 292 293 293 293 293 293 292 292 291 291 290 290 289 288 287 286 285 284 283 281 280 279 279 278 277
295 296 296 296 296 296 296 295 294 293 294 294 293 292 292 293 294 295 296 298 299 301 302 303 304 306 307 308 309 310 310 311 311 312 312 313 314 314 310 305 302 300 299 299 300 300 302 303 302 301 297 294 292 292 293 294 294 293 293 293 294 294 295 294 294 294 293 293 293 293 292 291 290 289 288 287 286 286 285 285 284 284 283 282 282
294 294 294 294 294 294 294 294 293 293 294 294 293 293 293 294 294 295 296 298 299 300 302 303 304 305 306 307 308 309 310 310 311 312 313 313 315 315 311 306 303 301 300 301 301 301 303 303 301 297 293 291 292 293 294 295 295 295 296 296 295 295 295 295 295 295 295 295 296 296 295 294 293 292 290 289 289 289 289 289 288 288 287 287 286
292 292 292 292 292 292 293 292 292 292 293 293 293 293 293 294 295 296 297 298 299 300 301 303 304 304 305 306 307 308 309 310 310 311 312 313 316 317 313 307 303 301 301 302 302 303 304 302 298 293 291 292 293 295 295 295 295 295 296 296 296 296 296 297 297 298 298 299 300 300 299 298 296 294 292 290 289 289 289 289 289 289 289 290 290
290 290 290 290 290 290 290 291 291 291 292 292 293 293 294 294 295 295 296 297 298 300 301 302 303 304 305 305 306 307 308 309 309 311 312 313 317 318 313 306 302 301 301 302 303 304 304 300 293 290 292 294 296 297 296 296 296 296 296 297 298 299 300 300 301 301 302 302 303 302 302 301 298 294 291 289 289 288 288 288 289 291 292 293 294
288 288 288 288 288 287 288 289 290 290 291 291 292 293 294 294 295 295 296 297 298 299 300 301 302 303 304 304 305 306 308 308 309 310 312 314 318 319 313 305 301 301 302 303 304 305 303 296 291 291 294 296 298 298 297 297 297 297 298 299 300 302 302 303 303 304 304 304 304 304 304 303 299 293 290 289 289 288 288 289 291 293 295 296 297
286 286 286 286 286 286 286 287 288 289 290 291 292 293 293 293 294 294 296 296 297 298 299 299 301 302 302 303 304 306 307 308 309 311 312 315 319 319 312 303 301 302 303 304 306 305 300 293 290 294 296 297 299 299 299 299 299 299 301 302 303 303 304 304 305 306 306 305 305 306 306 305 300 294 289 289 290 289 290 292 294 295 298 300 301
283 283 284 285 285 285 285 286 286 288 289 290 291 292 292 292 293 294 295 296 297 297 298 298 300 300 301 302 303 305 307 308 309 311 312 315 319 318 310 301 300 303 303 305 305 302 295 289 290 294 297 299 300 300 300 300 300 301 302 304 304 305 305 305 306 307 307 306 305 305 307 307 304 297 292 290 290 291 292 294 296 298 301 303 305
280 280 281 282 284 284 284 284 286 287 288 289 290 291 291 291 292 294 295 295 295 296 296 297 298 299 299 300 302 304 307 308 309 311 312 315 319 318 309 300 301 303 303 305 304 298 289 287 291 295 298 299 300 300 300 300 301 303 304 305 306 305 305 306 307 308 308 307 305 305 307 308 306 301 296 293 292 292 293 294 296 300 303 306 308
279 279 279 281 282 283 283 283 285 286 288 288 289 289 290 291 292 293 294 294 294 295 295 296 297 297 298 300 302 304 307 308 309 311 312 315 319 317 307 299 301 303 303 304 302 293 286 289 293 296 298 299 300 300 301 302 303 305 306 307 306 306 305 306 308 309 310 309 307 306 308 309 308 304 299 296 294 294 294 295 298 303 307 309 310
280 279 279 280 282 282 283 284 285 286 287 288 288 289 290 291 292 293 293 293 293 294 294 295 295 296 298 300 301 304 306 307 309 311 312 315 318 315 305 299 300 302 303 303 297 288 286 291 293 295 298 299 300 301 302 304 306 307 307 308 307 306 306 307 308 310 312 312 310 308 308 310 310 307 302 298 296 295 295 297 301 305 310 312 313
280 279 279 280 282 283 283 284 285 286 287 287 288 289 290 291 292 292 292 292 293 293 293 293 294 295 297 299 301 303 305 306 309 310 311 314 317 313 303 297 299 301 302 299 291 284 287 291 292 295 298 300 301 302 304 305 307 307 307 308 307 306 306 307 308 311 313 313 312 309 308 309 311 310 306 301 298 297 297 299 302 307 312 315 316
280 279 279 280 281 283 284 285 286 287 287 288 288 289 289 290 290 290 291 291 292 291 291 292 293 294 296 298 300 302 304 305 308 309 311 314 315 310 300 295 298 300 299 293 285 284 289 291 293 296 299 300 302 303 304 305 307 307 307 307 306 305 306 306 307 310 312 313 313 312 309 308 309 310 309 306 303 301 301 301 304 309 314 317 319
279 279 280 282 283 284 285 286 287 287 287 287 288 288 288 289 289 290 290 290 289 289 290 291 292 293 295 296 299 300 302 304 307 308 310 313 312 305 296 294 298 299 295 287 282 285 290 291 294 298 300 301 302 303 304 306 306 307 307 306 305 305 305 305 306 308 310 312 314 314 312 310 308 308 309 309 307 306 305 304 306 310 314 318 319
279 280 282 283 284 285 286 286 286 287 287 287 287 288 288 289 289 289 288 287 287 288 288 289 291 292 294 295 297 299 301 303 305 306 309 311 307 299 292 294 298 297 290 282 282 287 290 292 295 298 300 301 302 303 304 305 306 307 307 306 304 304 305 305 305 306 308 310 312 314 315 314 311 309 309 310 311 311 310 308 308 310 313 316 318
280 281 282 283 284 285 285 285 286 287 287 287 288 288 288 288 288 287 287 286 286 286 287 288 290 291 293 294 296 298 300 302 303 304 307 307 301 292 289 293 296 292 285 280 282 287 289 291 295 298 299 301 302 303 304 305 306 307 306 305 304 304 305 304 304 304 305 307 310 312 314 316 315 313 311 311 312 315 315 314 312 312 313 315 318
281 282 283 283 284 284 284 285 287 288 288 288 288 288 288 288 287 286 285 285 284 285 286 288 289 290 291 293 294 296 298 300 301 302 304 302 294 285 286 291 293 287 280 278 282 285 287 290 294 297 298 300 301 302 304 305 306 306 306 304 303 303 304 305 304 303 302 303 306 309 312 314 316 316 315 314 315 316 318 317 316 315 315 316 319
282 283 283 283 284 284 285 286 287 288 288 288 288 288 287 287 286 285 284 284 284 285 287 288 288 288 290 291 293 294 296 297 298 299 299 295 286 280 283 289 289 282 275 276 280 282 285 289 293 295 297 299 301 302 304 305 306 306 305 303 302 302 304 305 305 303 301 301 301 304 307 310 313 316 317 317 318 318 318 318 319 319 319 319 321
283 283 283 283 284 284 285 286 287 288 288 288 287 287 286 286 285 284 284 284 285 286 286 286 287 287 289 290 292 294 295 295 295 295 293 287 279 276 281 286 285 277 272 275 278 280 283 287 291 294 297 299 301 303 305 306 306 307 306 304 303 302 303 304 305 304 303 300 299 300 302 306 309 312 315 317 319 319 319 319 320 321 322 323 323
283 283 283 284 284 285 286 287 287 288 288 288 287 287 286 285 285 285 285 285 285 285 285 286 286 287 288 289 291 292 292 291 290 289 285 279 274 273 278 282 281 273 269 273 276 278 282 286 290 293 297 299 302 304 305 306 307 307 306 305 303 303 303 304 305 306 305 303 300 298 299 301 304 308 311 314 317 319 321 321 322 323 324 326 326
283 283 284 284 285 286 286 287 287 287 287 287 286 286 286 286 286 286 286 286 286 286 286 286 287 287 288 288 289 288 287 286 285 282 278 273 270 270 274 279 276 269 267 271 274 276 280 285 288 293 297 300 302 304 305 306 307 307 306 305 304 303 303 304 305 306 307 306 303 300 298 297 300 303 306 309 312 316 319 321 322 323 324 326 327
284 285 285 286 286 286 286 287 287 287 287 286 286 286 286 287 287 286 286 286 286 286 286 286 286 286 286 285 285 283 281 280 278 275 271 269 267 266 270 274 271 265 265 270 272 274 278 283 287 292 296 300 302 304 305 306 306 306 306 306 305 304 304 304 305 306 307 307 306 304 300 297 296 298 301 304 307 311 314 317 319 321 323 324 326
286 286 286 286 286 286 286 286 286 287 287 287 287 287 287 287 287 286 287 286 286 286 286 285 285 284 282 281 279 277 275 274 272 268 265 264 262 263 267 269 265 261 263 268 270 273 277 282 286 291 296 299 302 304 305 306 306 305 305 305 305 305 304 305 305 306 307 307 307 306 303 299 296 295 296 299 303 306 308 310 313 317 320 322 324
286 286 286 286 286 286 286 286 287 287 288 288 288 287 287 287 287 288 288 288 287 286 285 284 282 280 278 276 275 273 271 269 265 261 258 257 257 259 263 263 259 257 261 266 269 272 276 280 285 290 294 298 301 303 305 306 306 306 305 305 305 305 305 305 306 306 306 307 307 306 305 303 300 296 295 295 298 301 303 304 307 310 314 317 320
Height
5691 5688 5686 5684 5682 5679 5676 5674 5671 5668 5665 5662 5659 5656 5653 5650 5647 5644 5642 5639 5637 5634 5631 5629 5627 5624 5622 5619 5617 5615 5613 5610 5607 5604 5601 5598 5595 5592 5589 5586 5583 5580 5578 5575 5572 5570 5567 5565 5562 5560 5557 5555 5553 5550 5548 5546 5544 5543 5541 5539 5539 5535 5533 5532 5529 5538 5551 5553 5552 5554 5549 5549 5554 5554 5554 5557 5559 5560 5562 5564 5565 5565 5565 5568 5571
5682 5679 5677 5675 5672 5670 5667 5664 5662 5659 5655 5652 5649 5647 5644 5641 5638 5635 5632 5629 5627 5624 5621 5619 5616 5614 5612 5609 5607 5605 5602 5600 5596 5593 5590 5587 5584 5580 5577 5575 5571 5568 5565 5562 5559 5556 5554 5552 5549 5546 5544 5541 5540 5537 5534 5533 5530 5529 5528 5525 5525 5523 5518 5518 5517 5519 5529 5537 5538 5538 5534 5531 5536 5538 5535 5538 5543 5543 5545 5549 5550 5551 5553 5554 5556
5673 5670 5668 5665 5662 5660 5657 5655 5652 5649 5645 5643 5640 5637 5634 5631 5628 5626 5623 5620 5617 5614 5612 5609 5607 5604 5602 5599 5596 5594 5591 5589 5585 5582 5579 5575 5572 5569 5566 5563 5560 5556 5553 5549 5547 5544 5541 5538 5535 5532 5530 5527 5526 5523 5520 5519 5517 5514 5513 5511 5509 5508 5505 5502 5502 5502 5508 5518 5523 5523 5521 5515 5517 5521 5518 5519 5526 5527 5527 5531 5534 5536 5540 5541 5542
5663 5661 5658 5655 5653 5651 5648 5645 5642 5639 5636 5633 5630 5628 5625 5622 5619 5616 5613 5610 5607 5605 5602 5600 5597 5594 5591 5588 5586 5583 5580 5577 5574 5571 5567 5564 5561 5558 5555 5552 5548 5544 5541 5537 5534 5531 5527 5524 5521 5518 5516 5513 5511 5509 5506 5505 5503 5500 5499 5497 5493 5492 5490 5487 5486 5486 5488 5497 5503 5505 5504 5500 5499 5504 5503 5501 5507 5511 5510 5513 5517 5519 5524 5527 5528
5654 5651 5648 5646 5644 5641 5638 5636 5633 5630 5627 5624 5621 5619 5616 5613 5610 5607 5604 5601 5598 5595 5592 5590 5587 5584 5581 5578 5575 5572 5569 5566 5563 5559 5556 5552 5549 5546 5543 5539 5535 5531 5528 5524 5520 5517 5514 5510 5507 5504 5501 5500 5497 5495 5493 5491 5489 5487 5484 5483 5480 5478 5476 5473 5471 5471 5471 5475 5482 5485 5486 5483 5481 5486 5488 5485 5489 5494 5493 5495 5499 5502 5506 5510 5512
5645 5642 5638 5636 5634 5631 5628 5626 5623 5620 5618 5615 5612 5610 5607 5604 5601 5598 5594 5591 5588 5586 5583 5580 5577 5573 5570 5567 5563 5560 5557 5554 5551 5547 5544 5540 5537 5534 5530 5526 5523 5519 5515 5511 5507 5504 5501 5498 5495 5492 5488 5486 5484 5482 5481 5478 5476 5474 5472 5470 5468 5465 5464 5462 5459 5458 5457 5458 5462 5465 5467 5466 5463 5466 5470 5469 5472 5477 5477 5477 5481 5485 5488 5492 5496
5635 5632 5628 5626 5623 5621 5619 5616 5614 5611 5609 5606 5604 5601 5598 5595 5592 5588 5585 5582 5579 5576 5573 5569 5566 5562 5558 5555 5551 5548 5545 5542 5539 5535 5532 5529 5525 5522 5518 5514 5511 5507 5503 5499 5496 5492 5489 5486 5483 5480 5477 5474 5472 5470 5468 5467 5465 5463 5460 5458 5456 5454 5452 5450 5448 5447 5446 5445 5446 5447 5449 5449 5447 5447 5451 5452 5454 5457 5457 5459 5465 5469 5470 5472 5478
5626 5622 5619 5617 5614 5612 5610 5607 5605 5602 5600 5597 5595 5592 5589 5586 5582 5579 5575 5572 5569 5565 5562 5558 5555 5551 5547 5543 5539 5536 5533 5529 5526 5523 5520 5517 5513 5510 5507 5503 5499 5496 5492 5489 5485 5482 5479 5476 5473 5470 5467 5463 5461 5459 5457 5456 5454 5452 5450 5447 5445 5443 5440 5439 5437 5436 5435 5434 5434 5433 5434 5435 5433 5432 5433 5435 5437 5439 5438 5440 5448 5454 5453 5454 5461
5617 5614 5611 5608 5606 5603 5601 5599 5596 5593 5591 5588 5585 5582 5579 5576 5573 5570 5566 5562 5559 5555 5551 5547 5544 5540 5536 5532 5528 5524 5521 5517 5514 5511 5508 5505 5502 5499 5496 5493 5489 5486 5483 5479 5476 5473 5470 5467 5464 5460 5457 5454 5451 5448 5446 5444 5443 5441 5439 5436 5434 5432 5430 5428 5426 5425 5424 5423 5423 5422 5422 5422 5421 5419 5419 5420 5421 5422 5422 5423 5430 5435 5435 5439 5446
5609 5606 5603 5600 5597 5595 5593 5590 5587 5584 5582 5579 5576 5573 5570 5567 5564 5560 5556 5552 5548 5544 5541 5537 5533 5529 5525 5520 5516 5512 5509 5506 5502 5500 5497 5494 5492 5490 5487 5484 5480 5477 5474 5471 5468 5465 5462 5458 5455 5451 5448 5445 5441 5439 5436 5434 5431 5429 5427 5425 5422 5421 5419 5417 5416 5414 5413 5413 5412 5411 5411 5411 5409 5407 5407 5407 5408 5408 5408 5409 5414 5418 5418 5423 5432
5600 5598 5594 5592 5589 5587 5584 5581 5578 5575 5573 5570 5567 5564 5561 5557 5554 5550 5546 5542 5538 5534 5530 5526 5522 5518 5514 5509 5505 5501 5498 5495 5492 5489 5487 5484 5482 5481 5478 5475 5472 5468 5465 5462 5459 5456 5453 5449 5446 5442 5439 5435 5431 5428 5426 5423 5420 5417 5415 5413 5410 5408 5406 5405 5405 5403 5402 5402 5402 5400 5400 5399 5398 5395 5396 5397 5397 5397 5397 5398 5401 5403 5402 5406 5415
5592 5589 5586 5584 5581 5578 5575 5572 5569 5566 5563 5560 5557 5554 5551 5547 5544 5540 5536 5532 5528 5523 5519 5515 5511 5507 5503 5499 5495 5492 5489 5486 5483 5481 5478 5475 5473 5472 5469 5466 5463 5460 5456 5453 5450 5447 5443 5439 5436 5432 5428 5424 5421 5418 5416 5413 5410 5407 5404 5402 5399 5396 5394 5393 5392 5392 5391 5391 5392 5391 5389 5388 5387 5386 5386 5387 5387 5387 5386 5387 5388 5389 5390 5391 5397
5583 5580 5578 5575 5573 5569 5566 5563 5560 5557 5554 5551 5547 5544 5541 5537 5533 5530 5526 5521 5517 5513 5508 5504 5500 5497 5494 5490 5486 5483 5480 5478 5475 5472 5470 5467 5465 5463 5460 5457 5454 5451 5447 5444 5441 5437 5433 5429 5425 5422 5417 5414 5410 5407 5405 5403 5400 5398 5395 5392 5390 5387 5384 5382 5380 5379 5379 5380 5382 5382 5379 5378 5377 5377 5376 5376 5377 5376 5375 5376 5377 5377 5378 5379 5382
5574 5572 5569 5566 5563 5560 5557 5554 5551 5548 5545 5541 5537 5534 5530 5527 5523 5519 5515 5511 5507 5503 5499 5495 5491 5488 5485 5482 5478 5475 5472 5470 5468 5465 5462 5459 5457 5454 5452 5448 5445 5442 5438 5435 5432 5428 5424 5419 5416 5412 5408 5404 5400 5397 5395 5394 5392 5390 5387 5385 5382 5379 5376 5374 5371 5369 5369 5369 5371 5372 5371 5369 5368 5368 5368 5367 5367 5366 5365 5366 5367 5367 5368 5369 5369
5566 5563 5560 5557 5554 5551 5548 5545 5541 5538 5535 5531 5527 5524 5520 5516 5513 5508 5505 5501 5497 5494 5489 5486 5482 5479 5477 5475 5471 5467 5465 5463 5460 5457 5454 5451 5449 5446 5443 5440 5436 5433 5429 5426 5422 5419 5414 5410 5406 5403 5400 5396 5392 5388 5386 5384 5383 5381 5379 5377 5375 5373 5371 5368 5364 5362 5361 5361 5362 5362 5361 5359 5358 5358 5359 5359 5358 5357 5356 5357 5358 5358 5359 5359 5359
5558 5555 5551 5548 5545 5542 5538 5535 5532 5528 5524 5521 5517 5513 5509 5506 5502 5499 5495 5492 5488 5484 5481 5477 5475 5472 5469 5467 5464 5460 5457 5455 5452 5449 5446 5443 5440 5437 5434 5431 5427 5424 5420 5417 5413 5410 5406 5401 5397 5394 5391 5388 5384 5380 5377 5375 5374 5372 5371 5369 5368 5366 5365 5362 5359 5358 5357 5355 5354 5353 5352 5350 5349 5349 5350 5351 5350 5349 5348 5350 5350 5349 5350 5351 5351
5549 5546 5542 5538 5535 5532 5529 5526 5522 5518 5514 5511 5507 5503 5500 5496 5493 5490 5486 5483 5479 5476 5473 5470 5467 5465 5462 5460 5457 5453 5449 5447 5444 5441 5438 5435 5432 5429 5426 5422 5419 5415 5412 5408 5405 5401 5397 5393 5388 5385 5382 5379 5376 5372 5368 5366 5364 5363 5362 5361 5360 5359 5357 5355 5354 5353 5352 5350 5348 5346 5344 5342 5341 5342 5342 5342 5342 5341 5341 5343 5342 5341 5341 5343 5344
5541 5537 5533 5529 5526 5523 5519 5516 5512 5508 5505 5501 5497 5494 5490 5487 5484 5481 5477 5474 5471 5468 5466 5463 5460 5457 5455 5452 5450 5447 5442 5439 5436 5433 5429 5426 5423 5420 5417 5414 5411 5407 5404 5401 5397 5393 5390 5386 5381 5377 5374 5371 5368 5365 5361 5358 5356 5355 5354 5353 5353 5352 5350 5348 5348 5348 5347 5345 5342 5340 5337 5335 5334 5334 5334 5334 5334 5333 5333 5335 5335 5333 5334 5335 5337
5532 5528 5524 5520 5517 5513 5510 5506 5502 5499 5495 5492 5488 5485 5482 5479 5476 5473 5470 5467 5465 5462 5459 5457 5454 5450 5447 5445 5442 5439 5436 5432 5428 5425 5422 5418 5415 5412 5409 5406 5403 5399 5396 5393 5389 5386 5382 5378 5375 5370 5366 5364 5361 5358 5354 5351 5348 5347 5346 5345 5344 5344 5343 5342 5342 5341 5340 5338 5337 5334 5332 5329 5327 5326 5326 5326 5326 5325 5326 5327 5327 5326 5327 5328 5328
5523 5519 5515 5511 5508 5504 5500 5497 5493 5490 5486 5483 5480 5476 5474 5471 5468 5465 5463 5461 5458 5455 5453 5450 5447 5443 5440 5437 5434 5432 5429 5425 5421 5418 5414 5411 5407 5404 5401 5398 5395 5392 5389 5385 5382 5378 5374 5371 5368 5364 5360 5357 5354 5351 5347 5344 5341 5339 5338 5337 5336 5336 5336 5335 5335 5334 5332 5331 5330 5328 5326 5324 5322 5321 5320 5320 5319 5318 5318 5319 5320 5319 5320 5321 5321
5514 5510 5506 5503 5499 5495 5492 5488 5485 5482 5478 5475 5472 5469 5467 5464 5461 5458 5456 5454 5452 5449 5446 5443 5441 5437 5433 5430 5427 5424 5421 5418 5414 5411 5407 5404 5400 5396 5393 5391 5387 5384 5382 5378 5374 5371 5367 5364 5360 5357 5353 5350 5347 5344 5341 5337 5334 5332 5330 5329 5329 5328 5328 5328 5327 5326 5325 5324 5323 5321 5320 5318 5316 5315 5314 5314 5313 5312 5311 5311 5311 5312 5312 5314 5314
5504 5501 5497 5494 5490 5487 5483 5480 5477 5474 5470 5467 5465 5463 5460 5457 5454 5452 5450 5448 5445 5443 5440 5437 5434 5431 5427 5423 5420 5417 5414 5410 5407 5404 5401 5397 5393 5389 5386 5383 5379 5376 5374 5371 5367 5363 5360 5356 5353 5349 5346 5343 5340 5337 5334 5331 5328 5326 5324 5322 5321 5321 5321 5320 5320 5319 5318 5317 5315 5314 5313 5311 5309 5309 5308 5307 5307 5306 5305 5304 5303 5303 5304 5305 5305
5495 5492 5489 5486 5482 5479 5475 5472 5469 5466 5463 5460 5458 5456 5453 5450 5448 5446 5444 5442 5439 5436 5433 5430 5428 5425 5421 5417 5413 5410 5407 5403 5399 5397 5394 5390 5386 5382 5379 5375 5372 5368 5366 5363 5359 5356 5352 5348 5345 5342 5338 5335 5333 5330 5327 5324 5321 5319 5318 5316 5315 5315 5314 5313 5312 5311 5310 5309 5308 5307 5305 5303 5302 5302 5301 5300 5300 5298 5297 5297 5296 5296 5296 5296 5296
5486 5484 5481 5478 5475 5471 5468 5465 5462 5459 5456 5454 5451 5449 5446 5444 5442 5440 5437 5435 5433 5430 5427 5424 5421 5418 5415 5411 5407 5403 5400 5396 5392 5389 5387 5383 5379 5375 5372 5368 5365 5361 5358 5355 5351 5348 5344 5341 5337 5334 5330 5328 5325 5322 5319 5317 5314 5313 5312 5310 5310 5309 5307 5306 5305 5304 5303 5302 5301 5299 5298 5296 5295 5294 5293 5293 5292 5291 5289 5289 5288 5287 5287 5287 5287
5478 5476 5473 5470 5467 5464 5461 5458 5455 5452 5449 5447 5445 5442 5440 5438 5436 5433 5431 5429 5427 5424 5421 5418 5415 5412 5408 5405 5401 5397 5394 5390 5385 5382 5379 5376 5372 5368 5365 5361 5358 5354 5351 5348 5344 5340 5336 5333 5329 5326 5323 5320 5317 5315 5313 5310 5308 5306 5305 5304 5303 5303 5302 5300 5299 5298 5297 5295 5294 5293 5291 5289 5288 5287 5286 5285 5284 5282 5281 5281 5280 5278 5278 5278 5279
5471 5468 5466 5463 5460 5457 5454 5451 5448 5446 5443 5440 5438 5436 5434 5432 5429 5427 5425 5422 5420 5418 5415 5412 5408 5405 5402 5399 5395 5391 5388 5384 5380 5376 5373 5370 5366 5362 5358 5355 5351 5348 5344 5341 5337 5333 5329 5326 5323 5319 5316 5312 5310 5308 5306 5304 5303 5301 5300 5299 5298 5296 5295 5294 5293 5292 5290 5289 5287 5286 5284 5282 5281 5279 5278 5277 5275 5274 5273 5272 5271 5269 5268 5269 5270
5463 5460 5458 5455 5453 5450 5447 5444 5441 5439 5436 5434 5432 5429 5427 5425 5423 5421 5418 5416 5414 5411 5408 5405 5402 5399 5396 5392 5388 5385 5381 5378 5374 5370 5367 5364 5360 5356 5352 5348 5345 5341 5338 5335 5332 5328 5324 5320 5316 5312 5309 5306 5303 5301 5300 5299 5298 5297 5295 5293 5292 5290 5289 5288 5287 5285 5284 5282 5281 5279 5277 5275 5274 5271 5270 5269 5267 5265 5263 5263 5262 5260 5258 5258 5260
5455 5452 5449 5447 5445 5442 5440 5437 5435 5432 5430 5428 5425 5423 5421 5419 5417 5414 5411 5409 5407 5404 5401 5398 5395 5392 5389 5385 5382 5379 5375 5371 5367 5364 5360 5357 5353 5349 5345 5341 5338 5335 5332 5329 5326 5322 5318 5314 5310 5306 5303 5300 5298 5296 5295 5294 5292 5291 5290 5288 5287 5285 5283 5281 5280 5278 5277 5275 5274 5272 5270 5268 5266 5264 5262 5260 5258 5255 5253 5252 5252 5250 5249 5249 5250
5447 5445 5442 5439 5437 5434 5432 5430 5428 5425 5423 5421 5419 5417 5415 5413 5410 5407 5404 5401 5399 5397 5394 5391 5388 5385 5382 5379 5375 5372 5369 5365 5361 5358 5354 5350 5346 5342 5338 5334 5330 5327 5325 5322 5318 5315 5311 5307 5303 5300 5298 5296 5294 5292 5290 5289 5287 5285 5284 5283 5281 5279 5277 5275 5273 5271 5269 5268 5266 5264 5262 5260 5258 5255 5253 5251 5249 5246 5244 5243 5242 5241 5241 5241 5241
5439 5437 5434 5431 5429 5427 5424 5423 5421 5419 5417 5415 5412 5410 5408 5405 5403 5400 5397 5394 5392 5390 5387 5384 5381 5378 5375 5372 5368 5365 5362 5358 5354 5351 5347 5343 5339 5335 5331 5326 5323 5319 5316 5314 5310 5307 5304 5300 5297 5295 5293 5291 5289 5288 5286 5284 5282 5280 5278 5277 5276 5274 5271 5269 5267 5265 5262 5260 5259 5256 5254 5252 5250 5248 5246 5244 5242 5240 5238 5236 5235 5234 5233 5233 5234
5431 5429 5427 5423 5421 5419 5417 5415 5413 5411 5410 5407 5405 5403 5401 5398 5396 5393 5390 5388 5385 5382 5379 5377 5374 5371 5368 5365 5362 5358 5355 5351 5348 5344 5340 5337 5333 5328 5323 5319 5315 5312 5309 5306 5303 5300 5298 5294 5291 5289 5288 5286 5285 5283 5281 5280 5278 5275 5273 5271 5269 5268 5266 5263 5261 5258 5256 5253 5251 5249 5247 5245 5243 5241 5239 5237 5236 5234 5232 5230 5229 5228 5227 5227 5226
5423 5421 5419 5416 5414 5411 5409 5407 5405 5403 5402 5400 5397 5395 5393 5391 5388 5386 5383 5381 5377 5374 5371 5369 5366 5363 5361 5357 5355 5352 5349 5345 5341 5337 5333 5329 5326 5321 5316 5312 5308 5305 5302 5299 5296 5294 5291 5288 5286 5285 5283 5281 5279 5278 5276 5275 5273 5271 5269 5266 5264 5262 5260 5257 5255 5252 5250 5247 5245 5243 5240 5238 5236 5234 5233 5231 5230 5229 5227 5225 5224 5222 5222 5221 5219
5415 5413 5411 5408 5406 5404 5402 5400 5397 5395 5394 5392 5389 5387 5385 5383 5380 5378 5375 5373 5370 5367 5364 5361 5358 5356 5353 5349 5347 5344 5341 5338 5334 5330 5326 5323 5319 5314 5309 5305 5302 5299 5296 5293 5290 5287 5285 5283 5281 5280 5278 5276 5274 5273 5271 5270 5268 5266 5264 5261 5259 5256 5254 5252 5249 5247 5244 5242 5239 5237 5235 5232 5230 5229 5227 5226 5225 5224 5222 5221 5219 5218 5216 5215 5213
5407 5405 5403 5400 5398 5396 5394 5392 5390 5388 5386 5384 5382 5380 5377 5375 5373 5370 5367 5365 5362 5360 5356 5353 5350 5348 5345 5342 5339 5336 5333 5330 5326 5322 5319 5316 5312 5307 5303 5299 5296 5293 5290 5287 5284 5281 5279 5277 5276 5274 5273 5271 5269 5267 5266 5264 5263 5261 5258 5256 5254 5251 5249 5246 5244 5242 5239 5237 5234 5231 5229 5227 5225 5224 5222 5221 5219 5218 5217 5215 5214 5212 5210 5209 5206
5398 5396 5394 5392 5390 5388 5386 5384 5382 5380 5378 5376 5374 5372 5369 5367 5365 5362 5359 5356 5354 5351 5348 5345 5343 5341 5338 5335 5331 5328 5325 5322 5318 5315 5312 5309 5305 5301 5296 5293 5290 5286 5283 5281 5278 5275 5274 5273 5271 5270 5268 5266 5264 5263 5261 5259 5258 5256 5254 5251 5249 5246 5244 5241 5239 5237 5235 5232 5229 5227 5224 5222 5220 5218 5217 5216 5214 5213 5211 5210 5208 5206 5204 5201 5199
5390 5388 5386 5384 5381 5379 5377 5375 5374 5372 5370 5368 5366 5363 5361 5359 5356 5354 5352 5349 5346 5343 5339 5336 5334 5332 5330 5327 5324 5321 5318 5315 5311 5307 5304 5302 5299 5294 5290 5287 5284 5280 5278 5275 5272 5270 5269 5268 5267 5265 5263 5261 5260 5258 5256 5254 5253 5251 5249 5247 5244 5242 5240 5237 5235 5232 5230 5228 5225 5223 5220 5217 5215 5213 5212 5210 5209 5207 5206 5205 5203 5201 5198 5195 5192
5381 5379 5378 5376 5373 5371 5369 5368 5366 5364 5362 5360 5357 5355 5353 5350 5348 5346 5343 5341 5338 5335 5332 5329 5326 5323 5321 5319 5317 5314 5311 5307 5303 5300 5297 5295 5292 5288 5284 5281 5278 5275 5272 5269 5267 5265 5264 5263 5262 5260 5258 5257 5255 5253 5252 5250 5248 5246 5244 5241 5240 5238 5235 5233 5231 5228 5226 5223 5221 5218 5216 5213 5211 5209 5207 5205 5204 5202 5201 5199 5198 5195 5192 5189 5185
5372 5370 5369 5367 5365 5363 5361 5359 5358 5356 5353 5351 5349 5346 5344 5342 5339 5337 5335 5332 5330 5327 5325 5322 5318 5315 5312 5310 5308 5306 5303 5299 5296 5293 5290 5288 5285 5282 5278 5275 5273 5270 5267 5264 5262 5261 5259 5258 5257 5256 5254 5252 5251 5249 5247 5245 5243 5241 5239 5237 5235 5233 5231 5229 5226 5224 5222 5219 5216 5214 5212 5209 5207 5205 5203 5201 5199 5198 5196 5194 5193 5190 5187 5183 5180
5362 5361 5359 5358 5356 5355 5353 5351 5349 5347 5345 5342 5340 5337 5335 5333 5331 5328 5325 5323 5321 5319 5316 5314 5311 5308 5304 5302 5300 5299 5296 5292 5289 5286 5283 5281 5279 5276 5273 5270 5267 5265 5262 5259 5258 5256 5255 5254 5253 5251 5249 5248 5246 5244 5242 5240 5238 5237 5234 5232 5230 5228 5226 5224 5222 5220 5217 5215 5213 5210 5208 5206 5203 5201 5199 5197 5195 5193 5192 5190 5188 5186 5183 5180 5176
5354 5352 5351 5350 5348 5346 5344 5342 5340 5338 5335 5333 5331 5329 5327 5324 5322 5319 5317 5315 5312 5310 5308 5306 5303 5300 5297 5295 5293 5291 5288 5285 5282 5279 5276 5274 5272 5269 5267 5264 5262 5259 5257 5255 5253 5252 5251 5249 5248 5246 5245 5243 5242 5240 5238 5236 5234 5232 5230 5228 5226 5224 5222 5220 5218 5216 5214 5211 5209 5207 5204 5202 5200 5198 5195 5193 5191 5189 5187 5186 5183 5181 5179 5176 5173
5346 5344 5343 5341 5339 5337 5336 5333 5331 5328 5326 5324 5322 5320 5317 5315 5313 5310 5308 5306 5304 5301 5299 5297 5294 5291 5289 5287 5285 5283 5281 5279 5275 5272 5270 5267 5265 5262 5260 5258 5256 5254 5251 5250 5249 5248 5246 5244 5243 5241 5240 5239 5237 5235 5234 5232 5230 5228 5226 5224 5222 5220 5218 5216 5214 5212 5210 5207 5205 5203 5201 5199 5197 5194 5192 5190 5187 5185 5183 5181 5179 5177 5174 5172 5169
5338 5336 5334 5332 5330 5328 5326 5324 5322 5319 5317 5315 5313 5310 5308 5306 5304 5301 5299 5297 5295 5293 5291 5289 5286 5283 5280 5279 5277 5275 5274 5272 5269 5265 5263 5261 5259 5256 5254 5252 5250 5248 5246 5245 5244 5243 5242 5240 5238 5236 5235 5234 5233 5231 5230 5228 5226 5224 5222 5220 5218 5216 5214 5212 5209 5208 5206 5203 5201 5200 5198 5195 5193 5191 5189 5186 5184 5181 5179 5177 5175 5173 5171 5168 5165
5329 5327 5325 5323 5321 5319 5317 5315 5313 5310 5308 5305 5303 5301 5299 5296 5294 5292 5290 5288 5286 5284 5282 5280 5277 5274 5272 5270 5268 5267 5266 5264 5262 5259 5257 5255 5253 5251 5249 5247 5245 5243 5241 5240 5240 5239 5237 5236 5234 5232 5231 5230 5228 5227 5225 5224 5222 5220 5218 5215 5213 5211 5210 5208 5206 5204 5202 5200 5198 5196 5194 5192 5190 5188 5185 5183 5181 5178 5176 5174 5171 5169 5167 5164 5162
5320 5318 5316 5314 5312 5310 5308 5306 5304 5301 5299 5296 5294 5291 5289 5287 5285 5283 5281 5278 5276 5274 5272 5270 5268 5265 5263 5261 5259 5258 5257 5256 5254 5253 5251 5249 5246 5245 5244 5242 5240 5238 5236 5236 5235 5234 5233 5232 5230 5228 5227 5225 5224 5223 5221 5219 5218 5216 5214 5212 5210 5207 5206 5204 5202 5200 5198 5196 5194 5192 5190 5188 5187 5184 5182 5180 5178 5175 5173 5171 5168 5166 5163 5161 5158
5311 5309 5307 5305 5303 5301 5299 5296 5294 5292 5289 5287 5284 5282 5279 5277 5275 5273 5271 5268 5266 5264 5262 5260 5258 5256 5254 5251 5250 5249 5249 5248 5246 5245 5244 5242 5240 5239 5238 5237 5235 5233 5232 5231 5231 5230 5229 5228 5226 5225 5223 5221 5220 5218 5216 5215 5213 5211 5210 5208 5206 5204 5202 5200 5198 5196 5194 5192 5191 5189 5187 5185 5183 5181 5179 5177 5175 5173 5170 5168 5166 5163 5160 5158 5155
5302 5300 5298 5296 5294 5291 5289 5286 5284 5282 5279 5277 5274 5272 5269 5267 5265 5262 5260 5258 5256 5254 5252 5250 5248 5246 5244 5242 5240 5239 5239 5239 5238 5237 5236 5234 5233 5232 5232 5231 5229 5228 5227 5226 5226 5225 5224 5223 5222 5221 5220 5218 5216 5214 5212 5210 5208 5207 5205 5204 5202 5200 5198 5196 5194 5192 5190 5188 5187 5185 5184 5182 5180 5178 5176 5174 5172 5170 5168 5166 5163 5161 5158 5155 5153
5292 5290 5288 5286 5284 5281 5279 5276 5273 5271 5269 5266 5263 5261 5259 5256 5254 5252 5249 5247 5245 5243 5241 5240 5237 5235 5234 5232 5231 5230 5229 5229 5229 5228 5227 5226 5226 5226 5226 5225 5224 5223 5222 5222 5221 5220 5220 5219 5218 5217 5215 5214 5212 5210 5208 5206 5204 5202 5201 5199 5198 5196 5194 5192 5190 5188 5186 5184 5183 5181 5180 5178 5176 5175 5173 5171 5169 5167 5165 5163 5160 5158 5156 5153 5151
5283 5281 5278 5276 5274 5271 5268 5266 5263 5260 5258 5255 5253 5250 5248 5245 5243 5240 5238 5236 5233 5231 5229 5228 5226 5224 5222 5221 5220 5219 5219 5219 5219 5219 5219 5219 5219 5219 5219 5219 5218 5218 5217 5217 5216 5216 5215 5214 5213 5212 5211 5210 5208 5206 5204 5202 5199 5198 5196 5195 5193 5192 5190 5188 5186 5184 5182 5180 5179 5177 5176 5174 5173 5171 5169 5168 5166 5164 5162 5159 5157 5155 5153 5151 5149
5273 5271 5268 5266 5263 5261 5258 5255 5252 5250 5247 5244 5242 5239 5236 5234 5231 5228 5226 5223 5221 5219 5217 5215 5213 5211 5209 5208 5208 5208 5208 5209 5210 5210 5211 5211 5211 5212 5213 5213 5212 5212 5212 5212 5211 5211 5210 5210 5209 5208 5207 5205 5203 5201 5200 5198 5196 5194 5192 5190 5189 5187 5186 5184 5182 5180 5178 5176 5175 5173 5171 5170 5169 5167 5166 5164 5162 5161 5159 5157 5155 5153 5151 5149 5147
5262 5260 5258 5255 5252 5250 5247 5244 5242 5239 5236 5233 5231 5228 5225 5222 5219 5216 5213 5210 5207 5205 5202 5200 5198 5197 5196 5195 5195 5196 5197 5199 5200 5201 5202 5203 5204 5205 5206 5206 5206 5207 5207 5207 5206 5206 5205 5205 5204 5204 5202 5201 5199 5197 5195 5194 5192 5190 5188 5186 5185 5183 5181 5180 5178 5176 5174 5173 5171 5169 5167 5166 5164 5163 5162 5161 5159 5157 5156 5154 5152 5150 5148 5146 5144
5252 5249 5247 5244 5242 5239 5236 5233 5231 5228 5225 5222 5219 5216 5213 5210 5206 5203 5199 5196 5192 5189 5187 5185 5183 5182 5182 5182 5182 5184 5186 5188 5190 5192 5194 5195 5197 5198 5199 5200 5200 5201 5201 5202 5201 5201 5201 5200 5200 5199 5198 5196 5195 5193 5191 5190 5188 5186 5184 5182 5181 5179 5177 5175 5174 5172 5170 5169 5167 5165 5163 5162 5160 5159 5158 5157 5155 5154 5152 5151 5149 5148 5146 5144 5142